{"data":{"norad_id":53163,"intl_designator":"2022-083AH","name":"STARLINK-4104","alt_names":[],"object_type":"PAYLOAD","status":"ACTIVE","operator":null,"country":"US","launch_date":"2022-07-17","launch_site_code":"AFETR","launch_vehicle":null,"mission":null,"orbit_class":"UNKNOWN","rcs_meters":null,"size_class":null,"mass_kg":null,"dimensions":null,"purposes":["comms"],"wikipedia_slug":null,"has_3d_model":false,"image_url":null,"decayed_at":null,"tle_current":{"epoch":"2026-09-19T22:38:47.234400Z","epoch_age_seconds":120369,"freshness":"FRESH","line1":"1 53163U 22083AH  26262.94360225 -.00002893  00000+0 -74599-4 0  9993","line2":"2 53163  53.1608   6.2079 0001103  87.2229 272.8900 15.34374618230760","mean_motion":15.34374618,"eccentricity":0.0001103,"inclination_deg":53.1608,"raan_deg":6.2079,"arg_perigee_deg":87.2229,"mean_anomaly_deg":272.89,"bstar":-7.4599e-5,"rev_number":23076,"period_min":93.849310533889,"perigee_km":462.02412890037,"apogee_km":463.5332348998,"semimajor_km":6840.9156819001,"source":"CELESTRAK","updated_at":"2026-09-20T09:00:40.184069Z"}}}